User: anonymous   Login
Location: Bandys
(35.4750°N, 81.0830°W)
Time: 11:11:46
(UTC-05:00)
Language:

DELTA 2 R/B (1) - Orbit

View from above orbital plane
View from above orbital plane
View from above satellite
View from above satellite

Ground track
Ground track

The orbit data is extracted from the following two-line orbital elements,

1 27665U 03005C   18020.65666734  .00000023  00000-0  42818-4 0  9990
2 27665  39.5766  82.9330 0009071 247.7916 249.1400 14.28465342782031
Epoch (UTC): 20 January 2018 15:45:36
Eccentricity: 0.0009071
inclination: 39.5766°
perigee height: 790 km
apogee height: 803 km
right ascension of ascending node: 82.9330°
argument of perigee: 247.7916°
revolutions per day: 14.28465342
mean anomaly at epoch: 249.1400°
orbit number at epoch: 78203

The dashed part of the orbit path shows where the satellite is in the earth's shadow,  

DLR